Regional Weather Roundup
Issued by NWS

Home | Current Version | Previous Version | Text Only | Print | Product List | Glossary On
Versions: 1 2 3 4 5 6 7 8 9 10 11 12 13 14 15 16 17 18 19 20 21 22 23 24 25 26 27
000
ASUS45 KPSR 291310
RWRAZ

ARIZONA HOURLY REGIONAL WEATHER ROUNDUP
NATIONAL WEATHER SERVICE PHOENIX AZ
600 AM MST WED MAR 29 2017

NOTE: FAIR INDICATES FEW OR NO CLOUDS BELOW 12,000 FEET WITH NO
SIGNIFICANT WEATHER AND/OR OBSTRUCTIONS TO VISIBILITY.

AZZ001>003-036-291400-
NORTHWEST ARIZONA

CITY           SKY/WX    TMP DP  RH WIND       PRES   REMARKS
BULLHEAD CITY  CLEAR     63  25  23 NE12G18   30.05R
KINGMAN        CLEAR     37  15  40 E9        30.10R WCI  30
$$

AZZ004>008-015-016-018-291400-
NORTH CENTRAL ARIZONA

CITY           SKY/WX    TMP DP  RH WIND       PRES   REMARKS
GRAND CANYON   CLEAR     25  21  85 NE3       30.15R
WILLIAMS       CLEAR     28  21  74 CALM      30.13S
PRESCOTT       CLEAR     39  24  55 NW13      30.09S WCI  31
FLAGSTAFF      CLEAR     37  19  48 VRB3      30.08S
PAYSON         CLEAR     48  23  37 N15G21    30.06S
PAGE           CLEAR     45  23  42 CALM      30.11R
$$

AZZ009>014-017-291400-
NORTHEAST ARIZONA

CITY           SKY/WX    TMP DP  RH WIND       PRES   REMARKS
WINSLOW        CLEAR     38  24  57 W7        30.08R WCI  33
SAINT JOHNS    CLOUDY    38  29  70 W14       30.03R WCI  30
WINDOW ROCK    MOCLDY    39  28  64 N15       30.02R WCI  31
SHOW LOW       PTCLDY    32  21  64 NW9       30.08R WCI  24
$$

AZZ023-291400-
GREATER PHOENIX AREA

CITY           SKY/WX    TMP DP  RH WIND       PRES   REMARKS
PHOENIX        PTCLDY    59  30  33 CALM      29.94R
BUCKEYE        CLEAR     55  25  30 N8        29.95R
GLENDALE       CLEAR     61  28  29 NW10      29.96
LUKE AFB       CLEAR     55  31  40 N7        29.94R
DEER VALLEY    CLEAR     56  28  34 NE3       29.94R
SCOTTSDALE     CLEAR     55  35  47 CALM      29.95R
MESA-GATEWAY   CLEAR     48  32  53 SE3       29.96R
CHANDLER       CLEAR     52  34  50 NE7       29.95
$$

AZZ027-028-291400-
SOUTHWEST MARICOPA COUNTY AND PINAL COUNTY

CITY           SKY/WX    TMP DP  RH WIND       PRES   REMARKS
CASA GRANDE    NOT AVBL
GILA BEND      FAIR      51  20  29 S7          N/A
$$

AZZ503-504-507>509-291400-
SOUTHEAST ARIZONA

CITY           SKY/WX    TMP DP  RH WIND       PRES   REMARKS
TUCSON         CLEAR     47  29  49 S6        30.00R
DAVIS-MONTHAN  CLEAR     46  31  56 SE9       29.99R
RYAN FIELD     CLEAR     46  28  49 SE9       29.99
NOGALES        CLEAR     41  24  51 SE6       30.01S
SIERRA VISTA   CLEAR     45  24  43 W8        30.02F
DOUGLAS        CLEAR     42  27  55 N10       30.00S
SAFFORD        CLEAR     51  33  50 NW13      29.95R
$$

AZZ020-021-025-026-031-291400-
SOUTHWEST ARIZONA

CITY           SKY/WX    TMP DP  RH WIND       PRES   REMARKS
YUMA           CLEAR     68  24  19 NW12      29.97R
$$

CAZ031-033-041-043-047-048-061-291400-
SOUTHERN CALIFORNIA

CITY           SKY/WX    TMP DP  RH WIND       PRES   REMARKS
DOWNTOWN L.A.  CLEAR     57  49  74 CALM      30.00R
L.A. AIRPORT   PTCLDY    56  52  86 CALM      30.00R
SAN DIEGO      CLEAR     56  43  61 CALM      30.01R
BURBANK        CLEAR     54  33  45 N3        30.00R
ONTARIO        CLEAR     56  32  40 CALM      30.00S
RIVERSIDE      CLEAR     54  35  48 SE6       30.00S
PALM SPRINGS   CLEAR     69  25  19 W7        30.01S
EL CENTRO NAS  CLEAR     55  23  28 CALM      29.98F
IMPERIAL       CLEAR     53  30  41 W5        29.96F
BLYTHE         CLEAR     66  26  22 W13G20    30.00R
NEEDLES        CLEAR     63  24  22 N9        30.04R
$$

NVZ020-UTZ003-291400-
SOUTHERN NEVADA-UTAH

CITY           SKY/WX    TMP DP  RH WIND       PRES   REMARKS
LAS VEGAS      PTCLDY    53  26  35 SW5       30.11R
SALT LAKE CITY CLEAR     37  30  75 SE5       30.23S WCI  33
$$

NMZ009-TXZ055-291400-
NEW MEXICO-WEST TEXAS

CITY           SKY/WX    TMP DP  RH WIND       PRES   REMARKS
ALBUQUERQUE    CLOUDY    43  39  86 N10       29.93R
EL PASO        MOCLDY    54  31  41 W17G28    29.86R
$$


........................KEY........................
SKY/WX - SKY CONDITION/WEATHER
TMP    - TEMPERATURE IN FAHRENHEIT
DP     - DEW POINT IN FAHRENHEIT
RH     - RELATIVE HUMIDITY IN PERCENT
WIND   - DIRECTION AND SPEED IN MILES PER HOUR (MPH)
VRB    - VARIABLE WIND DIRECTION
PRES   - MEAN SEA LEVEL PRESSURE IN INCHES OF MERCURY
         F - FALLING PRESSURE   R - RISING PRESSURE
         S - STEADY PRESSURE
VSB    - VISIBILITY IN MILES
HX     - HEAT INDEX IN FAHRENHEIT
WCI    - WIND CHILL INDEX IN FAHRENHEIT
TC     - TEMPERATURE IN CELSIUS WHICH IS ALSO KNOWN AS
         TEMPERATURE IN CENTIGRADE
AFB    - AIR FORCE BASE
         LUKE AFB IS LUKE AIR FORCE BASE
         DAVIS-MONTHAN IS DAVIS-MONTHAN AIR FORCE BASE
NAS    - NAVAL AIR STATION
         EL CENTRO NAS IS EL CENTRO NAVAL AIR STATION
N/A    - NOT AVAILABLE





USA.gov is the U.S. government's official web portal to all federal, state and local government web resources and services.